"Time","Temp","Dewpoint","Humidity","Pressure","Direction","Speed","Gust","Precip","PrecipRate"
"00:04:59","65","60.2","84.6","30.14","275","0","0","0.00","0.00"
"00:09:59","64.9","60.3","85","30.14","275","0","0","0.00","0.00"
"00:14:59","64.8","60.2","85","30.14","275","0","0","0.00","0.00"
"00:19:57","64.7","60.3","85.8","30.14","275","0","0","0.00","0.00"
"00:24:59","64.6","60.2","85.5","30.14","275","0","0","0.00","0.00"
"00:29:56","64.5","60.2","86","30.14","275","0","0","0.00","0.00"
"00:34:59","64.5","60.2","86","30.14","275","0","0","0.00","0.00"
"00:39:57","64.5","60.3","86.4","30.14","275","0","0","0.00","0.00"
"00:44:59","64.4","60.4","87","30.14","275","0","0","0.00","0.00"
"00:49:59","64.5","60.5","87","30.14","275","0","0","0.00","0.00"
"00:54:57","64.5","60.6","87.4","30.14","275","0","0","0.00","0.00"
"00:59:59","64.6","61","88","30.14","275","0","0","0.00","0.00"
"01:04:57","64.7","61.1","88","30.14","275","0","0","0.00","0.00"
"01:09:58","64.8","61.2","88","30.14","275","0","0","0.00","0.00"
"01:14:59","64.9","61.1","87.4","30.14","275","0","0","0.00","0.00"
"01:19:56","64.9","60.9","87","30.14","275","0","0","0.00","0.00"
"01:24:58","65","61","87","30.14","275","0","0","0.00","0.00"
"01:29:59","65.1","61.1","87","30.14","275","0","0","0.00","0.00"
"01:34:57","65.2","61.2","87","30.13","275","0","0","0.00","0.00"
"01:39:58","65.3","61.3","87","30.13","275","0","0","0.00","0.00"
"01:44:56","65.3","61.3","87","30.13","275","0","0","0.00","0.00"
"01:49:57","65.3","61.2","86.6","30.12","275","0","0","0.00","0.00"
"01:54:59","65.4","61.2","86.4","30.12","275","0","1.2","0.00","0.00"
"01:59:56","65.4","61.1","86","30.12","275","0","0","0.00","0.00"
"02:04:57","65.4","61.1","86","30.12","275","0","0","0.00","0.00"
"02:09:56","65.3","61","86","30.12","275","0","0","0.00","0.00"
"02:14:57","65.2","61.2","86.9","30.12","275","0","0","0.00","0.00"
"02:19:58","65.1","61.1","87","30.12","275","0","0","0.00","0.00"
"02:24:56","65","61","87","30.12","275","0","0","0.00","0.00"
"02:29:57","65","61","87","30.12","275","0","0","0.00","0.00"
"02:34:58","65","61","87","30.12","275","0","0","0.00","0.00"
"02:39:59","64.9","60.9","87","30.12","275","0","0","0.00","0.00"
"02:44:57","64.9","61","87.3","30.12","275","0","0","0.00","0.00"
"02:49:58","64.8","61.2","88","30.11","275","0","0","0.00","0.00"
"02:54:59","64.8","61.2","88","30.11","275","0","0","0.00","0.00"
"02:59:57","64.7","61.3","88.6","30.11","275","0","0","0.00","0.00"
"03:04:59","64.7","61.4","89","30.11","275","0","0","0.00","0.00"
"03:09:57","64.7","61.4","89","30.11","275","0","0","0.00","0.00"
"03:14:56","64.7","61.4","88.9","30.11","275","0","0","0.00","0.00"
"03:19:58","64.7","61.2","88.2","30.11","275","0","0","0.00","0.00"
"03:24:59","64.7","61.2","88.2","30.11","275","0","0","0.00","0.00"
"03:29:57","64.7","61.1","88","30.11","275","0","0","0.00","0.00"
"03:34:58","64.5","61","88.4","30.11","275","0","0","0.00","0.00"
"03:39:56","64.3","60.9","88.6","30.11","275","0","0","0.00","0.00"
"03:44:56","64.1","60.9","89.3","30.11","275","0","0","0.00","0.00"
"03:49:57","63.9","60.9","90","30.11","275","0","0","0.00","0.00"
"03:54:58","63.9","60.9","90","30.11","275","0","0","0.00","0.00"
"03:59:56","63.8","60.8","90","30.11","275","0","0","0.00","0.00"
"04:04:57","63.7","60.7","90","30.10","275","0","0","0.00","0.00"
"04:09:59","63.6","60.8","90.6","30.10","275","0","0","0.00","0.00"
"04:14:56","63.4","60.7","91","30.10","275","0","0","0.00","0.00"
"04:19:58","63.3","60.6","91","30.10","275","0","0","0.00","0.00"
"04:24:59","63.1","60.5","91.4","30.10","275","0","0","0.00","0.00"
"04:29:56","63","60.6","92","30.10","275","0","0","0.00","0.00"
"04:34:57","62.9","60.5","92","30.09","275","0","0","0.00","0.00"
"04:39:57","62.8","60.4","92","30.09","275","0","0","0.00","0.00"
"04:44:59","62.8","60.4","92","30.10","275","0","0","0.00","0.00"
"04:49:56","62.8","60.5","92.5","30.10","275","0","0","0.00","0.00"
"04:54:57","62.8","60.5","92.6","30.10","275","0","0","0.00","0.00"
"04:59:59","62.7","60.6","93","30.10","275","0","0","0.00","0.00"
"05:04:57","62.8","60.7","93","30.10","275","0","0","0.00","0.00"
"05:09:59","62.8","60.7","93","30.10","275","0","0","0.00","0.00"
"05:14:56","62.9","60.8","93","30.11","275","0","0","0.00","0.00"
"05:19:57","62.9","60.8","93","30.11","275","0","0","0.00","0.00"
"05:24:59","63","60.9","93","30.11","275","0","0","0.00","0.00"
"05:29:57","63.1","61","93","30.11","275","0","0","0.00","0.00"
"05:34:58","63.1","61","93","30.11","275","0","0","0.00","0.00"
"05:39:56","63.2","61.1","93","30.11","275","0","0","0.00","0.00"
"05:44:58","63.3","61.2","93","30.11","275","0","0","0.00","0.00"
"05:49:56","63.4","61.3","93","30.11","275","0","0","0.00","0.00"
"05:54:58","63.5","61.6","93.7","30.11","275","0","0","0.00","0.00"
"05:59:57","63.6","61.6","93.4","30.11","275","0","0","0.00","0.00"
"06:04:50","63.7","61.6","93","30.11","275","0","0","0.00","0.00"
"06:09:58","63.8","61.7","93","30.11","275","0","0","0.00","0.00"
"06:14:59","63.9","61.8","93","30.11","275","0","0","0.00","0.00"
"06:19:57","64.1","62","93","30.11","275","0","0","0.00","0.00"
"06:24:56","64.2","62.1","93","30.11","275","0","0","0.00","0.00"
"06:29:58","64.4","62.3","93","30.11","275","0","0","0.00","0.00"
"06:34:56","64.5","62.4","93","30.11","275","0","0","0.00","0.00"
"06:39:57","64.6","62.5","93","30.11","275","0","0","0.00","0.00"
"06:44:59","64.7","62.6","93","30.11","275","0","0","0.00","0.00"
"06:49:56","64.8","62.5","92.2","30.11","205","0.1","1.2","0.00","0.00"
"06:54:57","65","62.6","92","30.11","194","0.1","1.2","0.00","0.00"
"06:59:58","65.1","62.7","92","30.11","194","0","0","0.00","0.00"
"07:04:56","65.2","62.8","92","30.11","194","0","0","0.00","0.00"
"07:09:58","65.3","62.6","91","30.11","194","0","0","0.00","0.00"
"07:14:59","65.5","62.8","91.3","30.11","194","0","0","0.00","0.00"
"07:19:57","65.7","63","91","30.11","194","0","0","0.00","0.00"
"07:24:59","66","63.1","90.4","30.11","194","0","0","0.00","0.00"
"07:29:56","66.3","63.3","90","30.11","194","0","0","0.00","0.00"
"07:34:56","66.8","63.8","90.2","30.11","194","0","0","0.00","0.00"
"07:39:56","67.3","64","89.3","30.11","194","0","0","0.00","0.00"
"07:44:57","67.6","64.1","88.8","30.11","194","0","0","0.00","0.00"
"07:49:59","67.8","64.1","88","30.11","194","0","0","0.00","0.00"
"07:54:59","68","64.3","88","30.11","194","0","0","0.00","0.00"
"07:59:58","68.2","64.7","88.6","30.11","194","0","0","0.00","0.00"
"08:04:58","68.4","64.7","88.2","30.11","194","0","0","0.00","0.00"
"08:09:56","68.6","64.9","88.2","30.11","194","0","0","0.00","0.00"
"08:14:57","68.8","65.1","88","30.11","194","0","0","0.00","0.00"
"08:19:57","68.9","65.2","88","30.11","194","0","0","0.00","0.00"
"08:24:58","69.2","65.4","87.7","30.11","194","0","0","0.00","0.00"
"08:29:59","69.6","65.7","87.2","30.11","194","0","0","0.00","0.00"
"08:34:59","70","65.5","85.6","30.11","194","0.5","2.3","0.00","0.00"
"08:39:58","70.3","65.4","84.5","30.11","193","0.3","2.3","0.00","0.00"
"08:44:59","70.6","65.9","85","30.11","193","0.3","1.2","0.00","0.00"
"08:49:58","70.9","66.2","85","30.11","193","0.6","2.3","0.00","0.00"
"08:54:58","71.1","65.9","83.8","30.11","193","0.1","1.2","0.00","0.00"
"08:59:59","71.2","66","83.6","30.11","193","0.4","2","0.00","0.00"
"09:04:59","71.4","66.3","83.8","30.11","193","0.8","2.3","0.00","0.00"
"09:09:57","71.8","66.5","83.4","30.11","186","1.1","3.5","0.00","0.00"
"09:14:57","72.3","66.4","81.8","30.12","127","1.1","3.5","0.00","0.00"
"09:19:58","72.6","66.4","80.8","30.12","123","1.1","3.5","0.00","0.00"
"09:24:58","72.8","66.2","79.9","30.12","128","1.9","4","0.00","0.00"
"09:29:58","72.9","66.5","80.2","30.12","153","1.9","5","0.00","0.00"
"09:34:58","73.3","66.4","78.9","30.12","136","2.3","6","0.00","0.00"
"09:39:57","73.7","66.7","79.1","30.12","122","2.2","6","0.00","0.00"
"09:44:57","74.2","67.3","78.9","30.12","133","1.9","4","0.00","0.00"
"09:49:57","74.9","67.8","78.4","30.12","137","1.2","3.5","0.00","0.00"
"09:54:57","75.3","67.6","77.1","30.12","146","2","5","0.00","0.00"
"09:59:57","75.2","67.3","76.7","30.12","126","2","4","0.00","0.00"
"10:04:58","75","67.2","76.8","30.11","173","2.6","5","0.00","0.00"
"10:09:59","74.9","67.4","77.5","30.11","191","1.8","4","0.00","0.00"
"10:14:59","75.3","68.2","78.7","30.11","175","1.5","4","0.00","0.00"
"10:19:58","75.8","68.3","77.5","30.11","134","1.5","3.5","0.00","0.00"
"10:24:58","76.3","68.4","76.4","30.11","128","1.7","3.5","0.00","0.00"
"10:29:57","76.6","68.6","76.4","30.11","194","2.2","5","0.00","0.00"
"10:34:57","76.8","68.5","75.5","30.10","150","2.3","7","0.00","0.00"
"10:39:56","77.1","68.8","75.3","30.10","196","3.9","7","0.00","0.00"
"10:44:56","77.5","69.1","75.5","30.10","170","2.3","7","0.00","0.00"
"10:49:59","77.9","69.2","74.6","30.10","185","2.3","5","0.00","0.00"
"10:54:59","78.2","69.3","74.2","30.10","139","1.8","5","0.00","0.00"
"10:59:59","78.3","69.1","73.6","30.10","163","2.3","6","0.00","0.00"
"11:04:55","78.2","69.4","74.4","30.10","177","2.8","5","0.00","0.00"
"11:09:57","78.6","69.4","73.4","30.10","160","2.8","6","0.00","0.00"
"11:14:38","78.9","69.3","72.6","30.10","138","2.5","9","0.00","0.00"
"11:19:56","78.7","69","72.3","30.10","117","2.8","6.9","0.00","0.00"
"11:24:56","78.6","69.2","73","30.10","124","1.7","4","0.00","0.00"
"11:29:59","79","69.9","73.5","30.10","126","2.5","5","0.00","0.00"
"11:34:58","79.6","69.7","71.9","30.10","134","2.6","7","0.00","0.00"
"11:39:56","79.8","69.6","71.1","30.10","137","1.6","4","0.00","0.00"
"11:44:59","80.3","70.6","72.2","30.10","169","2.3","5","0.00","0.00"
"11:49:57","81.1","70.5","70.4","30.10","158","2.2","5","0.00","0.00"
"11:54:57","81.3","69.9","68.5","30.10","194","2.6","6","0.00","0.00"
"11:59:59","81.2","69.8","68.4","30.10","145","3.4","9","0.00","0.00"
"12:04:59","81.1","70.1","69.3","30.10","178","3.5","11.5","0.00","0.00"
"12:09:57","80.9","69.8","69.1","30.10","145","2.1","9.2","0.00","0.00"
"12:14:59","81","70.1","69.5","30.10","162","1.9","5","0.00","0.00"
"12:19:58","81.1","70.1","69.3","30.10","186","2.6","6","0.00","0.00"
"12:24:57","80.9","69.6","68.5","30.10","153","2.7","6","0.00","0.00"
"12:29:56","80.9","69.6","68.5","30.10","177","2.4","5.8","0.00","0.00"
"12:34:59","80.9","69.9","69.2","30.10","158","2.8","10.4","0.00","0.00"
"12:39:58","81","70.1","69.5","30.10","139","2.2","6","0.00","0.00"
"12:44:58","81.4","70.2","68.9","30.10","138","2.7","6","0.00","0.00"
"12:49:56","82","70.5","68.2","30.10","175","3.1","7","0.00","0.00"
"12:54:59","82.4","70.7","67.9","30.10","184","2.6","6","0.00","0.00"
"12:59:58","82.6","70.9","68","30.10","162","1.5","6","0.00","0.00"
"13:04:57","83","70.6","66.3","30.09","178","3.5","9.2","0.00","0.00"
"13:09:59","82.8","70.3","65.8","30.09","171","2.4","6.9","0.00","0.00"
"13:14:57","82.6","70.6","67.1","30.09","145","2.1","9","0.00","0.00"
"13:19:56","82.7","70.6","66.9","30.09","136","3.5","9.2","0.00","0.00"
"13:24:59","82.6","70.3","66.5","30.09","127","3.3","10.4","0.00","0.00"
"13:29:58","82.7","70.4","66.5","30.09","129","3.4","11.5","0.00","0.00"
"13:34:58","83.2","70.7","66.1","30.08","132","2.6","7","0.00","0.00"
"13:39:56","83.4","70.5","65.3","30.08","129","2.8","7","0.00","0.00"
"13:44:59","83.5","71.4","66.9","30.08","153","1.9","5","0.00","0.00"
"13:49:58","83.8","70.7","65","30.08","155","2.4","5","0.00","0.00"
"13:54:57","83.4","70.5","65.2","30.08","172","2.7","5","0.00","0.00"
"13:59:57","83.1","70.7","66.2","30.08","166","2.5","6","0.00","0.00"
"14:04:56","83.2","70.9","66.7","30.08","135","2.2","7","0.00","0.00"
"14:09:58","83.3","70.6","65.7","30.08","166","2.3","6.9","0.00","0.00"
"14:14:57","83.4","70.8","65.9","30.08","136","2","6","0.00","0.00"
"14:19:56","83.7","71.4","66.7","30.07","128","2.5","6","0.00","0.00"
"14:24:59","83.9","71","65.2","30.07","141","2","4","0.00","0.00"
"14:29:58","83.9","70.9","65","30.07","153","2.4","5","0.00","0.00"
"14:34:56","83.7","70.5","64.6","30.06","136","3.6","8.1","0.00","0.00"
"14:39:58","83.6","70.7","65.1","30.06","156","3.7","7","0.00","0.00"
"14:44:58","83.6","71","65.8","30.06","192","3.7","8.1","0.00","0.00"
"14:49:57","83.7","70.9","65.6","30.06","185","3.8","7","0.00","0.00"
"14:54:56","84.3","71.4","65.3","30.06","159","3.3","6","0.00","0.00"
"14:59:59","84.8","71.6","64.6","30.06","133","3.3","9.2","0.00","0.00"
"15:04:59","85.1","72.2","65.3","30.05","150","3.2","9.2","0.00","0.00"
"15:09:56","85.3","71.3","63.1","30.05","177","3.7","7","0.00","0.00"
"15:14:59","85.2","71.2","63.1","30.05","164","2.7","6.9","0.00","0.00"
"15:19:58","85.1","71.3","63.5","30.05","205","2.9","9.2","0.00","0.00"
"15:24:57","85.3","71.9","64.3","30.05","181","2.9","5","0.00","0.00"
"15:29:56","85.5","71.8","63.6","30.05","171","3.7","7","0.00","0.00"
"15:34:59","85.6","71.9","63.8","30.04","158","2.9","8","0.00","0.00"
"15:39:59","85.2","71.6","63.9","30.04","167","3.6","8.1","0.00","0.00"
"15:44:58","84.7","71.6","64.8","30.04","184","2.9","7","0.00","0.00"
"15:49:57","84.3","71.4","65.3","30.04","173","2.8","6","0.00","0.00"
"15:54:57","84","71.2","65.5","30.04","171","2.7","5","0.00","0.00"
"15:59:55","84.1","71.7","66.5","30.04","181","3","6","0.00","0.00"
"16:04:56","84.3","71.3","65.3","30.04","170","2.9","7","0.00","0.00"
"16:09:57","84.2","71.5","65.8","30.04","166","2.9","7","0.00","0.00"
"16:14:59","84.4","71.6","65.5","30.04","150","3.1","9.2","0.00","0.00"
"16:19:58","84.6","71.4","64.7","30.03","157","4.8","9.2","0.00","0.00"
"16:24:57","84.5","71.5","65.3","30.03","179","2.5","7","0.00","0.00"
"16:29:59","85.1","72","65.1","30.03","171","3.7","7","0.00","0.00"
"16:34:58","85.9","72.3","63.9","30.03","163","3.7","7","0.00","0.00"
"16:39:56","86.1","72.4","63.8","30.03","198","3.6","6.9","0.00","0.00"
"16:44:55","86.4","71.9","62.1","30.03","154","4.1","12","0.00","0.00"
"16:49:58","86","71.6","62.3","30.02","179","4","10.4","0.00","0.00"
"16:54:57","85.5","71.5","63.1","30.02","151","3","7","0.00","0.00"
"16:59:56","85.1","71.2","63.3","30.02","146","3.1","7","0.00","0.00"
"17:04:59","85.2","71.3","63.3","30.02","155","3.2","9","0.00","0.00"
"17:09:57","85.6","71.8","63.7","30.02","172","3.7","13","0.00","0.00"
"17:14:59","85.8","71.4","62.2","30.02","157","3.7","8.1","0.00","0.00"
"17:19:57","85.7","71.3","62.2","30.01","125","3.6","6","0.00","0.00"
"17:24:56","85.7","71.7","63.2","30.01","157","3.3","7","0.00","0.00"
"17:29:59","85.3","71.2","62.8","30.02","139","2.3","5.8","0.00","0.00"
"17:34:57","84.9","71.1","63.3","30.02","177","3.7","9.2","0.00","0.00"
"17:39:59","84.5","71.1","64.3","30.02","171","2.8","7","0.00","0.00"
"17:44:58","84.3","71.3","65.2","30.02","135","3.7","7","0.00","0.00"
"17:49:57","84.3","71.6","65.8","30.01","139","3.3","7","0.00","0.00"
"17:54:56","84.3","71","64.5","30.01","155","3.3","7","0.00","0.00"
"17:59:59","84.3","71","64.5","30.01","151","3.5","10.4","0.00","0.00"
"18:04:58","84.4","71.1","64.5","30.01","150","3.5","9.2","0.00","0.00"
"18:09:59","84.5","71.1","64.2","30.01","164","4.1","11.5","0.00","0.00"
"18:14:57","84.5","70.9","64","30.01","164","3.9","10.4","0.00","0.00"
"18:19:56","84.1","70.8","64.4","30.01","160","3","10","0.00","0.00"
"18:24:59","83.7","70.7","65","30.01","176","3.2","7","0.00","0.00"
"18:29:57","83.5","70.8","65.9","30.01","131","3.1","10","0.00","0.00"
"18:34:56","83.2","70.4","65.3","30.00","150","4.3","10.4","0.00","0.00"
"18:39:58","82.9","70.2","65.7","30.00","131","3.3","6.9","0.00","0.00"
"18:44:57","82.7","70.3","66.3","30.01","167","3.6","9.2","0.00","0.00"
"18:49:56","82.4","70.1","66.5","30.01","154","3.4","10.4","0.00","0.00"
"18:54:59","82.2","70.1","67","30.01","154","3.6","10.4","0.00","0.00"
"18:59:57","82.1","70.1","67.1","30.01","165","3.2","9.2","0.00","0.00"
"19:04:57","82","70","67.1","30.00","148","3.6","7","0.00","0.00"
"19:09:59","81.8","70.2","68","30.00","166","3","10.4","0.00","0.00"
"19:14:58","81.8","70.2","68","30.00","170","3.3","7","0.00","0.00"
"19:19:57","81.6","70.2","68.3","30.00","160","3.9","10","0.00","0.00"
"19:24:55","81.5","70.3","69","30.00","139","2.9","10","0.00","0.00"
"19:29:59","81.4","70.5","69.6","30.00","151","1.6","5","0.00","0.00"
"19:34:58","81.1","70.4","69.8","30.00","161","3.8","10.4","0.00","0.00"
"19:39:56","80.9","70.2","70","30.00","158","3.1","7","0.00","0.00"
"19:44:55","80.8","70.4","70.8","30.00","143","3.1","9.2","0.00","0.00"
"19:49:58","80.7","70.1","70.4","30.00","150","3.5","10.4","0.00","0.00"
"19:54:58","80.5","70.2","71","30.00","156","2.7","6","0.00","0.00"
"19:59:57","80.2","69.9","71","30.01","149","3.2","9.2","0.00","0.00"
"20:04:57","80","69.8","71.2","30.01","168","4.6","10.4","0.00","0.00"
"20:09:59","79.8","69.9","71.9","30.01","150","2.8","7","0.00","0.00"
"20:14:58","79.6","69.8","72","30.01","149","3.2","11","0.00","0.00"
"20:19:57","79.5","69.7","72","30.00","154","4.2","12","0.00","0.00"
"20:24:57","79.3","69.6","72.2","30.00","138","3.8","10.4","0.00","0.00"
"20:29:56","79.2","69.8","73","30.00","155","3.2","8.1","0.00","0.00"
"20:34:57","79","69.6","73","30.00","165","2.8","9","0.00","0.00"
"20:39:56","78.8","69.5","73.2","30.00","158","2.2","6","0.00","0.00"
"20:44:57","78.7","69.7","74","30.01","137","2.2","5","0.00","0.00"
"20:49:59","78.6","69.6","74","30.01","153","2.3","5","0.00","0.00"
"20:54:57","78.5","69.5","74","30.01","169","2.6","6","0.00","0.00"
"20:59:58","78.5","69.5","74","30.01","146","2.3","4","0.00","0.00"
"21:04:59","78.4","69.4","74","30.00","137","2.1","4","0.00","0.00"
"21:09:56","78.4","69.4","74","30.00","142","2.6","6","0.00","0.00"
"21:14:57","78.3","69.3","74","30.01","135","2","5","0.00","0.00"
"21:19:58","78.2","69.2","74","30.01","152","2.2","5","0.00","0.00"
"21:24:59","78.1","69.5","75","30.01","172","1.9","4.6","0.00","0.00"
"21:29:56","77.9","69.3","75","30.01","145","1.6","4","0.00","0.00"
"21:34:57","77.8","69.4","75.5","30.01","165","2","5","0.00","0.00"
"21:39:56","77.7","69.5","76","30.01","148","1.8","6","0.00","0.00"
"21:44:57","77.6","69.4","76","30.01","182","2.8","7","0.00","0.00"
"21:49:58","77.6","69.4","76","30.01","158","3.3","6.9","0.00","0.00"
"21:54:59","77.5","69.3","76","30.01","164","3.5","9","0.00","0.00"
"21:59:56","77.5","69.3","76","30.01","153","3.3","6","0.00","0.00"
"22:04:57","77.4","69.2","76","30.01","172","3.1","10","0.00","0.00"
"22:09:58","77.3","69.1","76.1","30.01","166","3.8","10.4","0.00","0.00"
"22:14:59","77.2","69.3","76.8","30.01","162","3.7","10.4","0.00","0.00"
"22:19:56","77.1","69.3","77","30.00","193","4.3","11.5","0.00","0.00"
"22:24:57","76.9","69.1","77","30.00","164","3.4","9.2","0.00","0.00"
"22:29:57","76.7","69.2","77.7","30.00","164","2.4","7","0.00","0.00"
"22:34:58","76.6","69.2","78","30.00","164","3.7","10.4","0.00","0.00"
"22:39:59","76.5","69.1","78","30.00","179","2.7","10.4","0.00","0.00"
"22:44:57","76.3","69.1","78.5","30.00","163","3.1","6","0.00","0.00"
"22:49:58","76.2","69.2","79","30.00","175","3.6","10.4","0.00","0.00"
"22:54:58","76","69","79","30.00","190","2.9","5.8","0.00","0.00"
"22:59:56","75.9","68.9","79","30.00","164","2.3","5","0.00","0.00"
"23:04:57","75.7","69.1","79.9","30.00","147","2.6","5","0.00","0.00"
"23:09:58","75.6","69","80","30.00","177","3.6","8.1","0.00","0.00"
"23:14:59","75.5","69.1","80.7","30.01","169","2.9","5","0.00","0.00"
"23:19:56","75.4","69.2","81","30.01","161","2.4","7","0.00","0.00"
"23:24:57","75.4","69.2","81","30.01","188","3.1","7","0.00","0.00"
"23:29:58","75.4","69.2","81","30.01","173","2.6","6","0.00","0.00"
"23:34:59","75.4","69.2","81","30.00","180","2.6","6","0.00","0.00"
"23:39:56","75.4","69.3","81.4","30.00","176","2.1","5","0.00","0.00"
"23:44:57","75.3","69.2","81.5","30.00","164","2.8","6","0.00","0.00"
"23:49:59","75.2","69.3","82","30.00","189","2.7","5","0.00","0.00"
"23:54:56","75.1","69.2","82","30.00","159","2.1","5","0.00","0.00"
"23:59:58","75","69.5","82.9","30.00","163","2.1","6","0.00","0.00"
